,,,PA_Meas_PMT16A,,PR_Meas_QMR101_102,,RH_Meas_QMH101,,SR_Meas_QMS101,,TA_Meas_QMH101,,GenWind,,GenWind,
date,time,status,PA,status,PR,status,RH,status,SR,status,TA,status,DirAvg,status,SpdAvg,
2014-07-20, 00:00:04,VALID,1010.71,VALID,0,VALID,104,VALID,0,VALID,23.4017,VALID,192,VALID,0,
2014-07-20, 00:01:04,VALID,1010.7,VALID,0,VALID,104,VALID,0,VALID,23.3628,VALID,191,VALID,0,
2014-07-20, 00:02:04,VALID,1010.68,VALID,0,VALID,104,VALID,0,VALID,23.3628,VALID,192,VALID,0,
2014-07-20, 00:03:04,VALID,1010.68,VALID,0,VALID,104,VALID,0,VALID,23.3628,VALID,191,VALID,0.377344,
2014-07-20, 00:04:04,VALID,1010.7,VALID,0,VALID,104,VALID,0,VALID,23.3433,VALID,191,VALID,0,
2014-07-20, 00:05:04,VALID,1010.7,VALID,0,VALID,104,VALID,0,VALID,23.3238,VALID,191,VALID,0,
2014-07-20, 00:06:04,VALID,1010.71,VALID,0,VALID,104,VALID,0,VALID,23.3238,VALID,191,VALID,0,
2014-07-20, 00:07:04,VALID,1010.7,VALID,0,VALID,104,VALID,0,VALID,23.3238,VALID,191,VALID,0,
2014-07-20, 00:08:04,VALID,1010.68,VALID,0,VALID,104,VALID,0,VALID,23.3256,VALID,191,VALID,0,
2014-07-20, 00:09:04,VALID,1010.68,VALID,0,VALID,104,VALID,0,VALID,23.3043,VALID,191,VALID,0,
2014-07-20, 00:10:04,VALID,1010.66,VALID,0,VALID,104,VALID,0,VALID,23.3026,VALID,191,VALID,0.115234,
2014-07-20, 00:11:04,VALID,1010.63,VALID,0,VALID,104,VALID,0,VALID,23.3238,VALID,191,VALID,0.173047,
2014-07-20, 00:12:04,VALID,1010.62,VALID,0,VALID,104,VALID,0,VALID,23.3043,VALID,191,VALID,0.392188,
2014-07-20, 00:13:04,VALID,1010.6,VALID,0,VALID,104,VALID,0.112112,VALID,23.3026,VALID,191,VALID,0.129297,
2014-07-20, 00:14:04,VALID,1010.61,VALID,0,VALID,104,VALID,0,VALID,23.3026,VALID,191,VALID,0,
2014-07-20, 00:15:04,VALID,1010.61,VALID,0,VALID,104,VALID,0,VALID,23.3238,VALID,191,VALID,0,
2014-07-20, 00:16:04,VALID,1010.63,VALID,0,VALID,104,VALID,0,VALID,23.2831,VALID,191,VALID,0,
2014-07-20, 00:17:04,VALID,1010.61,VALID,0,VALID,104,VALID,0,VALID,23.3238,VALID,191,VALID,0,
2014-07-20, 00:18:04,VALID,1010.61,VALID,0,VALID,104,VALID,0,VALID,23.3238,VALID,191,VALID,0,
2014-07-20, 00:19:04,VALID,1010.6,VALID,0,VALID,104,VALID,0,VALID,23.3026,VALID,191,VALID,0,
2014-07-20, 00:20:04,VALID,1010.59,VALID,0,VALID,104,VALID,0,VALID,23.3026,VALID,191,VALID,0,
2014-07-20, 00:21:04,VALID,1010.58,VALID,0,VALID,104,VALID,0,VALID,23.3043,VALID,191,VALID,0,
2014-07-20, 00:22:04,VALID,1010.56,VALID,0,VALID,104,VALID,0,VALID,23.3043,VALID,191,VALID,0,
2014-07-20, 00:23:04,VALID,1010.56,VALID,0,VALID,104,VALID,0,VALID,23.3043,VALID,191,VALID,0,
2014-07-20, 00:24:04,VALID,1010.57,VALID,0,VALID,104,VALID,0.112112,VALID,23.2848,VALID,191,VALID,0,
2014-07-20, 00:25:04,VALID,1010.57,VALID,0,VALID,104,VALID,0.112112,VALID,23.2848,VALID,191,VALID,0,
2014-07-20, 00:26:04,VALID,1010.55,VALID,0,VALID,104,VALID,0.112112,VALID,23.2654,VALID,191,VALID,0,
2014-07-20, 00:27:04,VALID,1010.56,VALID,0,VALID,104,VALID,0,VALID,23.2654,VALID,191,VALID,0.1875,
2014-07-20, 00:28:04,VALID,1010.6,VALID,0,VALID,104,VALID,0,VALID,23.2459,VALID,191,VALID,0.204688,
2014-07-20, 00:29:04,VALID,1010.59,VALID,0,VALID,104,VALID,0,VALID,23.2246,VALID,191,VALID,0.139844,
2014-07-20, 00:30:04,VALID,1010.58,VALID,0,VALID,104,VALID,0,VALID,23.2654,VALID,191,VALID,0.00585938,
2014-07-20, 00:31:04,VALID,1010.57,VALID,0,VALID,104,VALID,0.112112,VALID,23.2246,VALID,191,VALID,0,
2014-07-20, 00:32:04,VALID,1010.56,VALID,0,VALID,104,VALID,0,VALID,23.2246,VALID,191,VALID,0,
2014-07-20, 00:33:04,VALID,1010.53,VALID,0,VALID,104,VALID,0,VALID,23.2264,VALID,191,VALID,0,
2014-07-20, 00:34:04,VALID,1010.52,VALID,0,VALID,104,VALID,0,VALID,23.2246,VALID,191,VALID,0,
2014-07-20, 00:35:04,VALID,1010.52,VALID,0,VALID,104,VALID,0.112112,VALID,23.2264,VALID,191,VALID,0.0457031,
2014-07-20, 00:36:04,VALID,1010.55,VALID,0,VALID,104,VALID,0.112112,VALID,23.2051,VALID,191,VALID,0.182812,
2014-07-20, 00:37:04,VALID,1010.52,VALID,0,VALID,104,VALID,0,VALID,23.2069,VALID,191,VALID,0.276172,
2014-07-20, 00:38:04,VALID,1010.53,VALID,0,VALID,104,VALID,0,VALID,23.1662,VALID,191,VALID,0.283984,
2014-07-20, 00:39:04,VALID,1010.5,VALID,0,VALID,104,VALID,0,VALID,23.2069,VALID,191,VALID,0,
2014-07-20, 00:40:04,VALID,1010.54,VALID,0,VALID,104,VALID,0,VALID,23.1857,VALID,191,VALID,0.00351562,
2014-07-20, 00:41:04,VALID,1010.51,VALID,0,VALID,104,VALID,0,VALID,23.2069,VALID,191,VALID,0,
2014-07-20, 00:42:04,VALID,1010.49,VALID,0,VALID,104,VALID,0.112112,VALID,23.2069,VALID,191,VALID,0.244141,
2014-07-20, 00:43:04,VALID,1010.48,VALID,0,VALID,104,VALID,0,VALID,23.2051,VALID,191,VALID,0.151562,
2014-07-20, 00:44:04,VALID,1010.45,VALID,0,VALID,104,VALID,0.112112,VALID,23.2459,VALID,191,VALID,0,
2014-07-20, 00:45:04,VALID,1010.44,VALID,0,VALID,104,VALID,0,VALID,23.2654,VALID,191,VALID,0,
2014-07-20, 00:46:04,VALID,1010.43,VALID,0,VALID,104,VALID,0,VALID,23.2441,VALID,191,VALID,0,
2014-07-20, 00:47:04,VALID,1010.44,VALID,0,VALID,104,VALID,0.112112,VALID,23.2459,VALID,191,VALID,0,
2014-07-20, 00:48:04,VALID,1010.45,VALID,0,VALID,104,VALID,0.112112,VALID,23.2246,VALID,191,VALID,0,
2014-07-20, 00:49:04,VALID,1010.43,VALID,0,VALID,104,VALID,0.112112,VALID,23.2264,VALID,191,VALID,0,
2014-07-20, 00:50:04,VALID,1010.41,VALID,0,VALID,104,VALID,0.112112,VALID,23.1857,VALID,191,VALID,0,
2014-07-20, 00:51:04,VALID,1010.42,VALID,0,VALID,104,VALID,0,VALID,23.1874,VALID,191,VALID,0,
2014-07-20, 00:52:04,VALID,1010.4,VALID,0,VALID,104,VALID,0.112112,VALID,23.1679,VALID,191,VALID,0,
2014-07-20, 00:53:04,VALID,1010.39,VALID,0,VALID,104,VALID,0.112112,VALID,23.1662,VALID,191,VALID,0,
2014-07-20, 00:54:04,VALID,1010.33,VALID,0,VALID,104,VALID,0.112112,VALID,23.1874,VALID,191,VALID,0,
2014-07-20, 00:55:04,VALID,1010.32,VALID,0,VALID,104,VALID,0,VALID,23.1662,VALID,191,VALID,0,
2014-07-20, 00:56:04,VALID,1010.29,VALID,0,VALID,104,VALID,0,VALID,23.1874,VALID,191,VALID,0.162109,
2014-07-20, 00:57:04,VALID,1010.28,VALID,0,VALID,104,VALID,0,VALID,23.1874,VALID,191,VALID,0,
2014-07-20, 00:58:04,VALID,1010.29,VALID,0,VALID,104,VALID,0,VALID,23.1485,VALID,191,VALID,0.0816406,
2014-07-20, 00:59:04,VALID,1010.27,VALID,0,VALID,104,VALID,0.112112,VALID,23.1485,VALID,191,VALID,0,
2014-07-20, 01:00:04,VALID,1010.3,VALID,0,VALID,104,VALID,0.112112,VALID,23.1077,VALID,191,VALID,0,
2014-07-20, 01:01:04,VALID,1010.31,VALID,0,VALID,104,VALID,0.112112,VALID,23.129,VALID,191,VALID,0,
2014-07-20, 01:02:04,VALID,1010.31,VALID,0,VALID,104,VALID,0,VALID,23.1272,VALID,191,VALID,0,
2014-07-20, 01:03:04,VALID,1010.33,VALID,0,VALID,104,VALID,0,VALID,23.1485,VALID,191,VALID,0,
2014-07-20, 01:04:04,VALID,1010.29,VALID,0,VALID,104,VALID,0.112112,VALID,23.1272,VALID,191,VALID,0,
2014-07-20, 01:05:04,VALID,1010.31,VALID,0,VALID,104,VALID,0,VALID,23.1272,VALID,191,VALID,0,
2014-07-20, 01:06:04,VALID,1010.27,VALID,0,VALID,104,VALID,0.112112,VALID,23.129,VALID,191,VALID,0,
2014-07-20, 01:07:04,VALID,1010.28,VALID,0,VALID,104,VALID,0,VALID,23.129,VALID,191,VALID,0,
2014-07-20, 01:08:04,VALID,1010.31,VALID,0,VALID,104,VALID,0,VALID,23.129,VALID,191,VALID,0,
2014-07-20, 01:09:04,VALID,1010.3,VALID,0,VALID,104,VALID,0,VALID,23.1095,VALID,191,VALID,0.000390625,
2014-07-20, 01:10:04,VALID,1010.3,VALID,0,VALID,104,VALID,0,VALID,23.1095,VALID,191,VALID,0,
2014-07-20, 01:11:04,VALID,1010.3,VALID,0,VALID,104,VALID,0,VALID,23.1095,VALID,191,VALID,0,
2014-07-20, 01:12:04,VALID,1010.3,VALID,0,VALID,104,VALID,0,VALID,23.0883,VALID,191,VALID,0,
2014-07-20, 01:13:04,VALID,1010.29,VALID,0,VALID,104,VALID,0,VALID,23.129,VALID,191,VALID,0,
2014-07-20, 01:14:04,VALID,1010.29,VALID,0,VALID,104,VALID,0,VALID,23.0883,VALID,191,VALID,0,
2014-07-20, 01:15:04,VALID,1010.29,VALID,0,VALID,104,VALID,0,VALID,23.129,VALID,191,VALID,0,
2014-07-20, 01:16:04,VALID,1010.3,VALID,0,VALID,104,VALID,0,VALID,23.1077,VALID,191,VALID,0,
2014-07-20, 01:17:04,VALID,1010.32,VALID,0,VALID,104,VALID,0.112112,VALID,23.1095,VALID,191,VALID,0,
2014-07-20, 01:18:04,VALID,1010.27,VALID,0,VALID,104,VALID,0,VALID,23.09,VALID,191,VALID,0,
2014-07-20, 01:19:04,VALID,1010.28,VALID,0,VALID,104,VALID,0.112112,VALID,23.0493,VALID,191,VALID,0,
2014-07-20, 01:20:04,VALID,1010.27,VALID,0,VALID,104,VALID,0,VALID,23.0688,VALID,191,VALID,0,
2014-07-20, 01:21:04,VALID,1010.26,VALID,0,VALID,104,VALID,0,VALID,23.09,VALID,191,VALID,0,
2014-07-20, 01:22:04,VALID,1010.22,VALID,0,VALID,104,VALID,0.112112,VALID,23.0705,VALID,191,VALID,0,
2014-07-20, 01:23:04,VALID,1010.19,VALID,0,VALID,104,VALID,0,VALID,23.0511,VALID,191,VALID,0,
2014-07-20, 01:24:04,VALID,1010.18,VALID,0,VALID,104,VALID,0,VALID,23.0316,VALID,191,VALID,0,
2014-07-20, 01:25:05,VALID,1010.16,VALID,0,VALID,104,VALID,0,VALID,23.0121,VALID,191,VALID,0,
2014-07-20, 01:26:05,VALID,1010.15,VALID,0,VALID,104,VALID,0,VALID,23.0121,VALID,191,VALID,0,
2014-07-20, 01:27:05,VALID,1010.16,VALID,0,VALID,104,VALID,0,VALID,22.9909,VALID,191,VALID,0,
2014-07-20, 01:28:05,VALID,1010.17,VALID,0,VALID,104,VALID,0,VALID,22.9909,VALID,191,VALID,0,
2014-07-20, 01:29:05,VALID,1010.17,VALID,0,VALID,104,VALID,0,VALID,23.0316,VALID,191,VALID,0,
2014-07-20, 01:30:05,VALID,1010.18,VALID,0,VALID,104,VALID,0.112112,VALID,23.0103,VALID,191,VALID,0.0015625,
2014-07-20, 01:31:05,VALID,1010.18,VALID,0,VALID,104,VALID,0,VALID,23.0316,VALID,191,VALID,0.190234,
2014-07-20, 01:32:05,VALID,1010.22,VALID,0,VALID,104,VALID,0,VALID,23.0511,VALID,191,VALID,0,
2014-07-20, 01:33:05,VALID,1010.21,VALID,0,VALID,104,VALID,0,VALID,23.0316,VALID,191,VALID,0,
2014-07-20, 01:34:05,VALID,1010.2,VALID,0,VALID,104,VALID,0,VALID,23.0316,VALID,191,VALID,0,
2014-07-20, 01:35:05,VALID,1010.2,VALID,0,VALID,104,VALID,0.112112,VALID,23.0103,VALID,191,VALID,0,
2014-07-20, 01:36:05,VALID,1010.2,VALID,0,VALID,104,VALID,0,VALID,23.0493,VALID,191,VALID,0,
2014-07-20, 01:37:05,VALID,1010.18,VALID,0,VALID,104,VALID,0,VALID,23.0688,VALID,191,VALID,0,
2014-07-20, 01:38:05,VALID,1010.17,VALID,0,VALID,104,VALID,0,VALID,23.1077,VALID,191,VALID,0,
2014-07-20, 01:39:05,VALID,1010.17,VALID,0,VALID,104,VALID,0,VALID,23.1272,VALID,191,VALID,0,
2014-07-20, 01:40:05,VALID,1010.16,VALID,0,VALID,104,VALID,0,VALID,23.1874,VALID,191,VALID,0,
2014-07-20, 01:41:05,VALID,1010.17,VALID,0,VALID,104,VALID,0.112112,VALID,23.2069,VALID,191,VALID,0,
2014-07-20, 01:42:05,VALID,1010.16,VALID,0,VALID,104,VALID,0,VALID,23.2264,VALID,191,VALID,0,
2014-07-20, 01:43:05,VALID,1010.16,VALID,0,VALID,104,VALID,0,VALID,23.2069,VALID,191,VALID,0,
2014-07-20, 01:44:05,VALID,1010.16,VALID,0,VALID,104,VALID,0,VALID,23.1467,VALID,191,VALID,0,
2014-07-20, 01:45:05,VALID,1010.14,VALID,0,VALID,104,VALID,0,VALID,23.1485,VALID,191,VALID,0,
2014-07-20, 01:46:05,VALID,1010.11,VALID,0,VALID,104,VALID,0,VALID,23.1095,VALID,191,VALID,0,
2014-07-20, 01:47:05,VALID,1010.1,VALID,0,VALID,104,VALID,0,VALID,23.09,VALID,191,VALID,0,
2014-07-20, 01:48:05,VALID,1010.09,VALID,0,VALID,104,VALID,0,VALID,23.0705,VALID,191,VALID,0,
2014-07-20, 01:49:05,VALID,1010.08,VALID,0,VALID,104,VALID,0,VALID,23.0705,VALID,191,VALID,0,
2014-07-20, 01:50:05,VALID,1010.07,VALID,0,VALID,104,VALID,0.112112,VALID,23.0493,VALID,191,VALID,0,
2014-07-20, 01:51:05,VALID,1010.04,VALID,0,VALID,104,VALID,0,VALID,23.0705,VALID,191,VALID,0.0253906,
2014-07-20, 01:52:05,VALID,1010.03,VALID,0,VALID,104,VALID,0,VALID,23.129,VALID,191,VALID,0.420703,
2014-07-20, 01:53:05,VALID,1010.02,VALID,0,VALID,104,VALID,0,VALID,23.1467,VALID,191,VALID,0.208203,
2014-07-20, 01:54:05,VALID,1010.02,VALID,0,VALID,104,VALID,0.112112,VALID,23.1874,VALID,191,VALID,0,
2014-07-20, 01:55:05,VALID,1009.98,VALID,0,VALID,104,VALID,0.112112,VALID,23.1679,VALID,191,VALID,0,
2014-07-20, 01:56:05,VALID,1009.95,VALID,0,VALID,104,VALID,0,VALID,23.1485,VALID,191,VALID,0,
2014-07-20, 01:57:05,VALID,1009.97,VALID,0,VALID,104,VALID,0,VALID,23.1485,VALID,191,VALID,0.335938,
2014-07-20, 01:58:05,VALID,1009.96,VALID,0,VALID,104,VALID,0,VALID,23.1679,VALID,191,VALID,0.155859,
2014-07-20, 01:59:05,VALID,1009.99,VALID,0,VALID,104,VALID,0,VALID,23.2069,VALID,191,VALID,0.257031,
2014-07-20, 02:00:05,VALID,1009.97,VALID,0,VALID,104,VALID,0,VALID,23.2459,VALID,191,VALID,0.473828,
2014-07-20, 02:01:05,VALID,1009.96,VALID,0,VALID,104,VALID,0,VALID,23.2459,VALID,191,VALID,0.267188,
2014-07-20, 02:02:05,VALID,1009.96,VALID,0,VALID,104,VALID,0.112112,VALID,23.2654,VALID,190,VALID,0.567187,
2014-07-20, 02:03:05,VALID,1009.96,VALID,0,VALID,104,VALID,0,VALID,23.2459,VALID,190,VALID,0.815625,
2014-07-20, 02:04:05,VALID,1009.95,VALID,0,VALID,104,VALID,0,VALID,23.2459,VALID,190,VALID,0.832031,
2014-07-20, 02:05:05,VALID,1009.97,VALID,0,VALID,104,VALID,0,VALID,23.2459,VALID,190,VALID,0.352344,
2014-07-20, 02:06:05,VALID,1009.97,VALID,0,VALID,104,VALID,0,VALID,23.2264,VALID,190,VALID,0.0382813,
2014-07-20, 02:07:05,VALID,1009.96,VALID,0,VALID,104,VALID,0,VALID,23.2654,VALID,190,VALID,0.173828,
2014-07-20, 02:08:05,VALID,1010,VALID,0,VALID,104,VALID,0,VALID,23.2654,VALID,190,VALID,0,
2014-07-20, 02:09:05,VALID,1010,VALID,0,VALID,104,VALID,0,VALID,23.2848,VALID,190,VALID,0,
2014-07-20, 02:10:05,VALID,1010,VALID,0,VALID,104,VALID,0,VALID,23.2848,VALID,190,VALID,0,
2014-07-20, 02:11:05,VALID,1010,VALID,0,VALID,104,VALID,0,VALID,23.2848,VALID,190,VALID,0,
2014-07-20, 02:12:05,VALID,1010.02,VALID,0,VALID,104,VALID,0,VALID,23.2848,VALID,190,VALID,0,
2014-07-20, 02:13:05,VALID,1010.01,VALID,0,VALID,104,VALID,0,VALID,23.2654,VALID,190,VALID,0,
2014-07-20, 02:14:05,VALID,1010.03,VALID,0,VALID,104,VALID,0,VALID,23.2848,VALID,190,VALID,0,
2014-07-20, 02:15:05,VALID,1010.03,VALID,0,VALID,104,VALID,0,VALID,23.2654,VALID,190,VALID,0,
2014-07-20, 02:16:05,VALID,1010.04,VALID,0,VALID,104,VALID,0,VALID,23.2459,VALID,190,VALID,0,
2014-07-20, 02:17:05,VALID,1010.04,VALID,0,VALID,104,VALID,0,VALID,23.2459,VALID,190,VALID,0,
2014-07-20, 02:18:05,VALID,1010.05,VALID,0,VALID,104,VALID,0,VALID,23.2459,VALID,190,VALID,0,
2014-07-20, 02:19:05,VALID,1010.04,VALID,0,VALID,104,VALID,0,VALID,23.2654,VALID,190,VALID,0,
2014-07-20, 02:20:05,VALID,1010.06,VALID,0,VALID,104,VALID,0,VALID,23.2654,VALID,190,VALID,0,
2014-07-20, 02:21:05,VALID,1010.02,VALID,0,VALID,104,VALID,0.112112,VALID,23.2654,VALID,190,VALID,0,
2014-07-20, 02:22:05,VALID,1010.02,VALID,0,VALID,104,VALID,0,VALID,23.2459,VALID,190,VALID,0,
2014-07-20, 02:23:05,VALID,1010.02,VALID,0,VALID,104,VALID,0,VALID,23.2459,VALID,190,VALID,0,
2014-07-20, 02:24:05,VALID,1010.01,VALID,0,VALID,104,VALID,0,VALID,23.2654,VALID,190,VALID,0,
2014-07-20, 02:25:05,VALID,1009.95,VALID,0,VALID,104,VALID,0,VALID,23.2459,VALID,190,VALID,0,
2014-07-20, 02:26:05,VALID,1009.98,VALID,0,VALID,104,VALID,0,VALID,23.2246,VALID,190,VALID,0,
2014-07-20, 02:27:05,VALID,1009.97,VALID,0,VALID,104,VALID,0,VALID,23.2264,VALID,190,VALID,0,
2014-07-20, 02:28:05,VALID,1009.96,VALID,0,VALID,104,VALID,0,VALID,23.2069,VALID,190,VALID,0,
2014-07-20, 02:29:05,VALID,1009.97,VALID,0,VALID,104,VALID,0,VALID,23.2069,VALID,190,VALID,0,
2014-07-20, 02:30:05,VALID,1009.96,VALID,0,VALID,104,VALID,0,VALID,23.2069,VALID,190,VALID,0,
2014-07-20, 02:31:05,VALID,1009.97,VALID,0,VALID,104,VALID,0,VALID,23.2459,VALID,190,VALID,0,
2014-07-20, 02:32:05,VALID,1010.01,VALID,0,VALID,104,VALID,0,VALID,23.2459,VALID,190,VALID,0,
2014-07-20, 02:33:05,VALID,1010,VALID,0,VALID,104,VALID,0,VALID,23.2459,VALID,190,VALID,0,
2014-07-20, 02:34:05,VALID,1010.02,VALID,0,VALID,104,VALID,0,VALID,23.2459,VALID,190,VALID,0,
2014-07-20, 02:35:05,VALID,1010.02,VALID,0,VALID,104,VALID,0,VALID,23.2654,VALID,190,VALID,0,
2014-07-20, 02:36:05,VALID,1010.01,VALID,0,VALID,104,VALID,0,VALID,23.2848,VALID,190,VALID,0,
2014-07-20, 02:37:05,VALID,1010,VALID,0,VALID,104,VALID,0,VALID,23.2848,VALID,190,VALID,0,
2014-07-20, 02:38:05,VALID,1009.99,VALID,0,VALID,104,VALID,0,VALID,23.2848,VALID,190,VALID,0,
2014-07-20, 02:39:05,VALID,1009.99,VALID,0,VALID,104,VALID,0,VALID,23.2654,VALID,190,VALID,0,
2014-07-20, 02:40:05,VALID,1010.01,VALID,0,VALID,104,VALID,0,VALID,23.2848,VALID,190,VALID,0,
2014-07-20, 02:41:05,VALID,1009.98,VALID,0,VALID,104,VALID,0,VALID,23.3043,VALID,190,VALID,0,
2014-07-20, 02:42:05,VALID,1009.96,VALID,0,VALID,104,VALID,0,VALID,23.2848,VALID,190,VALID,0,
2014-07-20, 02:43:05,VALID,1009.95,VALID,0,VALID,104,VALID,0,VALID,23.2848,VALID,190,VALID,0,
2014-07-20, 02:44:05,VALID,1009.98,VALID,0,VALID,104,VALID,0,VALID,23.2848,VALID,190,VALID,0,
2014-07-20, 02:45:05,VALID,1009.96,VALID,0,INVALID,109.018,VALID,0,VALID,23.2848,VALID,190,VALID,0,
2014-07-20, 02:46:05,VALID,1009.99,VALID,0,INVALID,109.025,VALID,0,VALID,23.2654,VALID,190,VALID,0,
2014-07-20, 02:47:05,VALID,1010.02,VALID,0,INVALID,109.041,VALID,0,VALID,23.2459,VALID,190,VALID,0.00703125,
2014-07-20, 02:48:05,VALID,1010.04,VALID,0,INVALID,109.041,VALID,0,VALID,23.2459,VALID,190,VALID,0,
2014-07-20, 02:49:05,VALID,1010.04,VALID,0,INVALID,109.048,VALID,0.112112,VALID,23.2654,VALID,190,VALID,0.194531,
2014-07-20, 02:50:05,VALID,1010.07,VALID,0,INVALID,109.064,VALID,0,VALID,23.2654,VALID,190,VALID,0.127344,
2014-07-20, 02:51:05,VALID,1010.09,VALID,0,INVALID,109.071,VALID,0,VALID,23.2654,VALID,190,VALID,0,
2014-07-20, 02:52:05,VALID,1010.08,VALID,0,INVALID,109.079,VALID,0,VALID,23.2654,VALID,190,VALID,0,
2014-07-20, 02:53:05,VALID,1010.08,VALID,0,INVALID,109.086,VALID,0,VALID,23.2654,VALID,190,VALID,0.0976563,
2014-07-20, 02:54:05,VALID,1010.08,VALID,0,INVALID,109.094,VALID,0,VALID,23.2459,VALID,190,VALID,0.289453,
2014-07-20, 02:55:05,VALID,1010.08,VALID,0,INVALID,109.109,VALID,0,VALID,23.2654,VALID,190,VALID,0.0550781,
2014-07-20, 02:56:05,VALID,1010.1,VALID,0,INVALID,109.125,VALID,0,VALID,23.2654,VALID,190,VALID,0,
2014-07-20, 02:57:05,VALID,1010.08,VALID,0,INVALID,109.14,VALID,0,VALID,23.2671,VALID,190,VALID,0,
2014-07-20, 02:58:05,VALID,1010.11,VALID,0,INVALID,109.163,VALID,0,VALID,23.2264,VALID,190,VALID,0,
2014-07-20, 02:59:05,VALID,1010.11,VALID,0,INVALID,109.17,VALID,0,VALID,23.2069,VALID,190,VALID,0.104297,
2014-07-20, 03:00:05,VALID,1010.11,VALID,0,INVALID,109.193,VALID,0,VALID,23.2069,VALID,190,VALID,0.00585938,
2014-07-20, 03:01:05,VALID,1010.12,VALID,0,INVALID,109.178,VALID,0,VALID,23.2264,VALID,190,VALID,0.277734,
2014-07-20, 03:02:05,VALID,1010.1,VALID,0,INVALID,109.186,VALID,0,VALID,23.2264,VALID,190,VALID,0.299219,
2014-07-20, 03:03:05,VALID,1010.11,VALID,0,INVALID,109.201,VALID,0,VALID,23.2476,VALID,190,VALID,0.207422,
2014-07-20, 03:04:05,VALID,1010.09,VALID,0,INVALID,109.208,VALID,0,VALID,23.2459,VALID,190,VALID,0,
2014-07-20, 03:05:05,VALID,1010.1,VALID,0,INVALID,109.201,VALID,0,VALID,23.2459,VALID,190,VALID,0.178516,
2014-07-20, 03:06:05,VALID,1010.1,VALID,0,INVALID,109.186,VALID,0,VALID,23.2654,VALID,190,VALID,0.0449219,
2014-07-20, 03:07:05,VALID,1010.12,VALID,0,INVALID,109.216,VALID,0,VALID,23.2848,VALID,190,VALID,0.317969,
2014-07-20, 03:08:05,VALID,1010.09,VALID,0,INVALID,109.216,VALID,0,VALID,23.3043,VALID,190,VALID,0,
2014-07-20, 03:09:05,VALID,1010.1,VALID,0,INVALID,109.224,VALID,0,VALID,23.3061,VALID,190,VALID,0.00117188,
2014-07-20, 03:10:05,VALID,1010.07,VALID,0,INVALID,109.231,VALID,0,VALID,23.3043,VALID,190,VALID,0,
2014-07-20, 03:11:05,VALID,1010.05,VALID,0,INVALID,109.247,VALID,0,VALID,23.2831,VALID,190,VALID,0.254687,
2014-07-20, 03:12:05,VALID,1010.05,VALID,0,INVALID,109.262,VALID,0,VALID,23.3043,VALID,190,VALID,0.298828,
2014-07-20, 03:13:05,VALID,1010.03,VALID,0,INVALID,109.285,VALID,0,VALID,23.2848,VALID,190,VALID,0.130078,
2014-07-20, 03:14:05,VALID,1010.01,VALID,0,INVALID,109.308,VALID,0.112112,VALID,23.3043,VALID,190,VALID,0.419531,
2014-07-20, 03:15:05,VALID,1009.98,VALID,0,INVALID,109.323,VALID,0,VALID,23.3043,VALID,190,VALID,0.344531,
2014-07-20, 03:16:05,VALID,1009.98,VALID,0,INVALID,109.338,VALID,0,VALID,23.3043,VALID,190,VALID,0.00195313,
2014-07-20, 03:17:05,VALID,1009.97,VALID,0,INVALID,109.338,VALID,0,VALID,23.2848,VALID,190,VALID,0,
2014-07-20, 03:18:05,VALID,1009.99,VALID,0,INVALID,109.353,VALID,0.112112,VALID,23.2848,VALID,190,VALID,0,
2014-07-20, 03:19:05,VALID,1010,VALID,0,INVALID,109.369,VALID,0,VALID,23.2848,VALID,190,VALID,0,
2014-07-20, 03:20:05,VALID,1009.99,VALID,0,INVALID,109.361,VALID,0,VALID,23.2848,VALID,190,VALID,0.236719,
2014-07-20, 03:21:05,VALID,1010.02,VALID,0,INVALID,109.376,VALID,0,VALID,23.2848,VALID,190,VALID,0.0265625,
2014-07-20, 03:22:05,VALID,1010.03,VALID,0,INVALID,109.353,VALID,0,VALID,23.3043,VALID,190,VALID,0,
2014-07-20, 03:23:05,VALID,1010,VALID,0,INVALID,109.384,VALID,0,VALID,23.3043,VALID,190,VALID,0,
2014-07-20, 03:24:05,VALID,1010.04,VALID,0,INVALID,109.376,VALID,0,VALID,23.3256,VALID,190,VALID,0,
2014-07-20, 03:25:05,VALID,1010.02,VALID,0,INVALID,109.414,VALID,0,VALID,23.2848,VALID,190,VALID,0,
2014-07-20, 03:26:05,VALID,1010.03,VALID,0,INVALID,109.452,VALID,0,VALID,23.3043,VALID,190,VALID,0,
2014-07-20, 03:27:05,VALID,1010.02,VALID,0,INVALID,109.46,VALID,0,VALID,23.2866,VALID,190,VALID,0,
2014-07-20, 03:28:05,VALID,1010.08,VALID,0,INVALID,109.491,VALID,0,VALID,23.2654,VALID,190,VALID,0,
2014-07-20, 03:29:05,VALID,1010.05,VALID,0,INVALID,109.513,VALID,0,VALID,23.2654,VALID,190,VALID,0,
2014-07-20, 03:30:05,VALID,1010.03,VALID,0,INVALID,109.506,VALID,0,VALID,23.2654,VALID,190,VALID,0,
2014-07-20, 03:31:05,VALID,1010.1,VALID,0,INVALID,109.498,VALID,0,VALID,23.3061,VALID,190,VALID,0.0722656,
2014-07-20, 03:32:05,VALID,1010.12,VALID,0,INVALID,109.498,VALID,0,VALID,23.2848,VALID,190,VALID,0.330859,
2014-07-20, 03:33:05,VALID,1010.13,VALID,0,INVALID,109.521,VALID,0,VALID,23.3043,VALID,190,VALID,0,
2014-07-20, 03:34:05,VALID,1010.16,VALID,0,INVALID,109.574,VALID,0,VALID,23.2654,VALID,190,VALID,0.0015625,
2014-07-20, 03:35:05,VALID,1010.14,VALID,0,INVALID,109.597,VALID,0,VALID,23.2459,VALID,190,VALID,0,
2014-07-20, 03:36:05,VALID,1010.12,VALID,0,INVALID,109.628,VALID,0,VALID,23.2264,VALID,190,VALID,0,
2014-07-20, 03:37:05,VALID,1010.14,VALID,0,INVALID,109.651,VALID,0,VALID,23.2087,VALID,190,VALID,0.127734,
2014-07-20, 03:38:05,VALID,1010.13,VALID,0,INVALID,109.651,VALID,0,VALID,23.1679,VALID,190,VALID,0.425,
2014-07-20, 03:39:05,VALID,1010.13,VALID,0,INVALID,109.666,VALID,0,VALID,23.1679,VALID,190,VALID,0.380859,
2014-07-20, 03:40:05,VALID,1010.11,VALID,0,INVALID,109.704,VALID,0,VALID,23.1485,VALID,190,VALID,0.412891,
2014-07-20, 03:41:05,VALID,1010.08,VALID,0,INVALID,109.689,VALID,0,VALID,23.1307,VALID,190,VALID,0.360156,
2014-07-20, 03:42:05,VALID,1010.12,VALID,0,INVALID,109.696,VALID,0,VALID,23.1095,VALID,190,VALID,0.365625,
2014-07-20, 03:43:05,VALID,1010.11,VALID,0,INVALID,109.696,VALID,0,VALID,23.1307,VALID,190,VALID,0.353125,
2014-07-20, 03:44:05,VALID,1010.1,VALID,0,INVALID,109.696,VALID,0,VALID,23.09,VALID,190,VALID,0.307813,
2014-07-20, 03:45:05,VALID,1010.11,VALID,0,INVALID,109.689,VALID,0,VALID,23.1095,VALID,190,VALID,0.242969,
2014-07-20, 03:46:05,VALID,1010.09,VALID,0,INVALID,109.696,VALID,0,VALID,23.1095,VALID,190,VALID,0.178516,
2014-07-20, 03:47:05,VALID,1010.12,VALID,0,INVALID,109.704,VALID,0,VALID,23.09,VALID,190,VALID,0.00585938,
2014-07-20, 03:48:05,VALID,1010.14,VALID,0,INVALID,109.719,VALID,0,VALID,23.09,VALID,190,VALID,0,
2014-07-20, 03:49:05,VALID,1010.17,VALID,0,INVALID,109.696,VALID,0,VALID,23.0705,VALID,190,VALID,0,
2014-07-20, 03:50:05,VALID,1010.18,VALID,0,INVALID,109.666,VALID,0,VALID,23.1095,VALID,190,VALID,0,
2014-07-20, 03:51:05,VALID,1010.18,VALID,0,INVALID,109.658,VALID,0,VALID,23.1485,VALID,190,VALID,0.317578,
2014-07-20, 03:52:05,VALID,1010.21,VALID,0,INVALID,109.651,VALID,0,VALID,23.1874,VALID,190,VALID,0.219141,
2014-07-20, 03:53:05,VALID,1010.2,VALID,0,INVALID,109.666,VALID,0,VALID,23.2069,VALID,190,VALID,0.289063,
2014-07-20, 03:54:05,VALID,1010.23,VALID,0,INVALID,109.674,VALID,0,VALID,23.2069,VALID,190,VALID,0.253516,
2014-07-20, 03:55:05,VALID,1010.26,VALID,0,INVALID,109.674,VALID,0,VALID,23.2069,VALID,190,VALID,0.0015625,
2014-07-20, 03:56:05,VALID,1010.29,VALID,0,INVALID,109.681,VALID,0,VALID,23.2069,VALID,190,VALID,0.00507812,